GIA753 WAAA-WADD

Flight info

Callsign GIA753
Flight time 1h 2m
Altitude 38000
Route LIPOT W41 PEDET
Aircraft A339/H-SADE1E2E3GHIJ3J5M1P2RWXY/LB2D1

Departure

Time 2026-04-25 04:06
Airport Sultan Hasanuddin International Airport (WAAA)

Arrival

Time 2026-04-25 05:08
Airport Denpasar I Gusti Ngurah Rai International Airport (WADD)
Time Latitude Longitude Altitude Speed Heading
2026-04-25 03:42 -5.08037 119.54581 54 ft 0 kts 300°
2026-04-25 03:52 -5.08038 119.54583 47 ft 1 kts 300°
2026-04-25 03:53 -5.08041 119.54588 48 ft 1 kts 300°
2026-04-25 03:53 -5.08044 119.54593 48 ft 1 kts 300°
2026-04-25 03:53 -5.08047 119.54598 49 ft 1 kts 300°
2026-04-25 03:53 -5.08052 119.54608 49 ft 4 kts 307°
2026-04-25 03:54 -5.08065 119.54623 46 ft 2 kts
2026-04-25 03:54 -5.08079 119.54620 46 ft 2 kts 46°
2026-04-25 03:54 -5.08088 119.54610 46 ft 2 kts 46°
2026-04-25 03:54 -5.08096 119.54601 46 ft 2 kts 32°
2026-04-25 03:55 -5.08098 119.54600 46 ft 0 kts 32°
2026-04-25 03:57 -5.08092 119.54603 46 ft 4 kts 32°
2026-04-25 03:57 -5.08026 119.54645 49 ft 16 kts 32°
2026-04-25 03:57 -5.07973 119.54692 52 ft 8 kts 68°
2026-04-25 03:57 -5.08000 119.54739 52 ft 9 kts 124°
2026-04-25 03:58 -5.08038 119.54801 48 ft 12 kts 122°
2026-04-25 03:58 -5.08049 119.54873 48 ft 10 kts 51°
2026-04-25 03:58 -5.07984 119.54917 49 ft 12 kts 29°
2026-04-25 03:58 -5.07903 119.54963 51 ft 17 kts 30°
2026-04-25 03:59 -5.07763 119.55044 53 ft 30 kts 30°
2026-04-25 03:59 -5.07565 119.55158 48 ft 34 kts 30°
2026-04-25 03:59 -5.07362 119.55276 54 ft 33 kts 30°
2026-04-25 03:59 -5.07161 119.55389 49 ft 33 kts 29°
2026-04-25 04:00 -5.06964 119.55503 49 ft 33 kts 30°
2026-04-25 04:00 -5.06768 119.55618 48 ft 32 kts 30°
2026-04-25 04:00 -5.06628 119.55700 49 ft 20 kts 30°
2026-04-25 04:00 -5.06599 119.55716 52 ft 0 kts 29°
2026-04-25 04:02 -5.06597 119.55717 48 ft 2 kts 29°
2026-04-25 04:02 -5.06550 119.55743 50 ft 11 kts 29°
2026-04-25 04:02 -5.06528 119.55803 52 ft 10 kts 99°
2026-04-25 04:03 -5.06568 119.55863 51 ft 12 kts 131°
2026-04-25 04:03 -5.06628 119.55935 48 ft 17 kts 130°
2026-04-25 04:03 -5.06738 119.56064 48 ft 32 kts 130°
2026-04-25 04:03 -5.06816 119.56163 49 ft 12 kts 111°
2026-04-25 04:04 -5.06835 119.56245 49 ft 13 kts 121°
2026-04-25 04:04 -5.06887 119.56241 52 ft 7 kts 228°
2026-04-25 04:04 -5.06873 119.56201 49 ft 5 kts 316°
2026-04-25 04:04 -5.06838 119.56177 46 ft 6 kts 318°
2026-04-25 04:05 -5.06805 119.56138 52 ft 8 kts 310°
2026-04-25 04:05 -5.06802 119.56134 52 ft 0 kts 310°
2026-04-25 04:05 -5.06747 119.56069 48 ft 48 kts 310°
2026-04-25 04:05 -5.06311 119.55562 48 ft 139 kts 311°
2026-04-25 04:06 -5.05556 119.54694 361 ft 180 kts 311°
2026-04-25 04:06 -5.04688 119.53736 1157 ft 185 kts 307°
2026-04-25 04:06 -5.04237 119.52570 2090 ft 186 kts 274°
2026-04-25 04:06 -5.04508 119.51252 2643 ft 207 kts 241°
2026-04-25 04:07 -5.05474 119.50097 3114 ft 229 kts 221°
2026-04-25 04:07 -5.06744 119.48979 3582 ft 251 kts 219°
2026-04-25 04:07 -5.08086 119.47777 3938 ft 271 kts 222°
2026-04-25 04:07 -5.09455 119.46410 4553 ft 278 kts 225°
2026-04-25 04:08 -5.10760 119.44974 5280 ft 281 kts 227°
2026-04-25 04:08 -5.12055 119.43469 5981 ft 285 kts 229°
2026-04-25 04:08 -5.13335 119.41955 6691 ft 288 kts 229°
2026-04-25 04:08 -5.14632 119.40421 7353 ft 291 kts 229°
2026-04-25 04:09 -5.15961 119.38861 8037 ft 293 kts 229°
2026-04-25 04:09 -5.17287 119.37313 8690 ft 297 kts 229°
2026-04-25 04:09 -5.18654 119.35725 9375 ft 300 kts 229°
2026-04-25 04:09 -5.20019 119.34146 10013 ft 302 kts 229°
2026-04-25 04:10 -5.21425 119.32523 10296 ft 320 kts 229°
2026-04-25 04:10 -5.22939 119.30782 10467 ft 339 kts 229°
2026-04-25 04:10 -5.24522 119.28967 10727 ft 352 kts 229°
2026-04-25 04:10 -5.26134 119.27120 11272 ft 355 kts 229°
2026-04-25 04:11 -5.29414 119.23356 12415 ft 361 kts 229°
2026-04-25 04:11 -5.30516 119.22089 12782 ft 363 kts 229°
2026-04-25 04:11 -5.32194 119.20162 13342 ft 365 kts 229°
2026-04-25 04:12 -5.33865 119.18243 13872 ft 368 kts 229°
2026-04-25 04:12 -5.35550 119.16305 14359 ft 371 kts 229°
2026-04-25 04:12 -5.37262 119.14335 14850 ft 374 kts 229°
2026-04-25 04:12 -5.38958 119.12380 15325 ft 376 kts 229°
2026-04-25 04:13 -5.40696 119.10377 15799 ft 379 kts 229°
2026-04-25 04:13 -5.42429 119.08379 16259 ft 382 kts 228°
2026-04-25 04:13 -5.44175 119.06367 16709 ft 385 kts 228°
2026-04-25 04:13 -5.45954 119.04317 17178 ft 388 kts 228°
2026-04-25 04:14 -5.47736 119.02264 17620 ft 391 kts 228°
2026-04-25 04:14 -5.49524 119.00203 18063 ft 394 kts 228°
2026-04-25 04:14 -5.51326 118.98121 18477 ft 396 kts 229°
2026-04-25 04:14 -5.53136 118.96025 18879 ft 398 kts 229°
2026-04-25 04:15 -5.54943 118.93927 19275 ft 401 kts 229°
2026-04-25 04:15 -5.56786 118.91787 19686 ft 403 kts 229°
2026-04-25 04:15 -5.58604 118.89674 20084 ft 405 kts 229°
2026-04-25 04:15 -5.60467 118.87512 20483 ft 407 kts 229°
2026-04-25 04:16 -5.62309 118.85375 20892 ft 409 kts 229°
2026-04-25 04:16 -5.64195 118.83190 21289 ft 412 kts 229°
2026-04-25 04:16 -5.66060 118.81029 21686 ft 414 kts 229°
2026-04-25 04:16 -5.67966 118.78823 22096 ft 416 kts 229°
2026-04-25 04:17 -5.69858 118.76634 22474 ft 419 kts 229°
2026-04-25 04:17 -5.71785 118.74407 22887 ft 421 kts 229°
2026-04-25 04:17 -5.73703 118.72189 23261 ft 424 kts 229°
2026-04-25 04:17 -5.75657 118.69931 23630 ft 426 kts 229°
2026-04-25 04:18 -5.77592 118.67697 23970 ft 428 kts 229°
2026-04-25 04:18 -5.79561 118.65424 24296 ft 431 kts 229°
2026-04-25 04:18 -5.81524 118.63157 24608 ft 434 kts 229°
2026-04-25 04:18 -5.83525 118.60848 24925 ft 436 kts 229°
2026-04-25 04:19 -5.85502 118.58566 25248 ft 439 kts 229°
2026-04-25 04:19 -5.87524 118.56231 25580 ft 441 kts 229°
2026-04-25 04:19 -5.89540 118.53901 25883 ft 444 kts 229°
2026-04-25 04:19 -5.91556 118.51574 26197 ft 446 kts 229°
2026-04-25 04:20 -5.93624 118.49183 26509 ft 449 kts 229°
2026-04-25 04:20 -5.95670 118.46820 26814 ft 451 kts 229°
2026-04-25 04:20 -5.97746 118.44423 27107 ft 454 kts 229°
2026-04-25 04:20 -5.99820 118.42030 27431 ft 456 kts 229°
2026-04-25 04:21 -6.01903 118.39627 27723 ft 459 kts 229°
2026-04-25 04:21 -6.03987 118.37220 28034 ft 461 kts 229°
2026-04-25 04:21 -6.06093 118.34787 28359 ft 463 kts 229°
2026-04-25 04:21 -6.08228 118.32319 28636 ft 466 kts 229°
2026-04-25 04:22 -6.10367 118.29847 28937 ft 468 kts 229°
2026-04-25 04:22 -6.12489 118.27396 29216 ft 470 kts 229°
2026-04-25 04:22 -6.14629 118.24923 29510 ft 473 kts 229°
2026-04-25 04:22 -6.16811 118.22400 29813 ft 475 kts 229°
2026-04-25 04:23 -6.18982 118.19890 30096 ft 477 kts 229°
2026-04-25 04:23 -6.21172 118.17357 30369 ft 479 kts 229°
2026-04-25 04:23 -6.23348 118.14840 30634 ft 482 kts 229°
2026-04-25 04:23 -6.25545 118.12300 30904 ft 484 kts 229°
2026-04-25 04:24 -6.27769 118.09726 31201 ft 486 kts 229°
2026-04-25 04:24 -6.29979 118.07169 31472 ft 488 kts 229°
2026-04-25 04:24 -6.32220 118.04574 31736 ft 490 kts 229°
2026-04-25 04:24 -6.34454 118.01989 32010 ft 492 kts 229°
2026-04-25 04:25 -6.36703 117.99385 32245 ft 494 kts 229°
2026-04-25 04:25 -6.38972 117.96758 32488 ft 496 kts 229°
2026-04-25 04:25 -6.41228 117.94145 32685 ft 498 kts 229°
2026-04-25 04:25 -6.43522 117.91488 32852 ft 500 kts 229°
2026-04-25 04:26 -6.45782 117.88869 33011 ft 501 kts 229°
2026-04-25 04:26 -6.48058 117.86233 33151 ft 502 kts 229°
2026-04-25 04:26 -6.50368 117.83557 33273 ft 503 kts 229°
2026-04-25 04:26 -6.52644 117.80919 33395 ft 504 kts 229°
2026-04-25 04:27 -6.54958 117.78237 33546 ft 504 kts 229°
2026-04-25 04:27 -6.57238 117.75594 33702 ft 503 kts 229°
2026-04-25 04:27 -6.59542 117.72923 33832 ft 504 kts 229°
2026-04-25 04:27 -6.61833 117.70268 33980 ft 503 kts 230°
2026-04-25 04:28 -6.64106 117.67632 34131 ft 503 kts 230°
2026-04-25 04:28 -6.66408 117.64962 34271 ft 502 kts 230°
2026-04-25 04:28 -6.68682 117.62325 34404 ft 502 kts 230°
2026-04-25 04:28 -6.70964 117.59649 34537 ft 502 kts 230°
2026-04-25 04:29 -6.73239 117.56949 34683 ft 501 kts 230°
2026-04-25 04:29 -6.75470 117.54291 34817 ft 501 kts 230°
2026-04-25 04:29 -6.77733 117.51593 34966 ft 501 kts 230°
2026-04-25 04:29 -6.79959 117.48941 35111 ft 500 kts 230°
2026-04-25 04:30 -6.82225 117.46244 35209 ft 500 kts 230°
2026-04-25 04:30 -6.84447 117.43603 35068 ft 497 kts 230°
2026-04-25 04:30 -6.86668 117.40962 34835 ft 499 kts 230°
2026-04-25 04:30 -6.88931 117.38271 34598 ft 500 kts 230°
2026-04-25 04:31 -6.91163 117.35617 34377 ft 500 kts 230°
2026-04-25 04:31 -6.93433 117.32919 34149 ft 501 kts 230°
2026-04-25 04:31 -6.95660 117.30271 33929 ft 501 kts 230°
2026-04-25 04:31 -6.97922 117.27580 33678 ft 502 kts 230°
2026-04-25 04:32 -7.00189 117.24883 33419 ft 502 kts 230°
2026-04-25 04:32 -7.02426 117.22221 33172 ft 502 kts 230°
2026-04-25 04:32 -7.04674 117.19547 32914 ft 503 kts 230°
2026-04-25 04:32 -7.06947 117.16841 32672 ft 503 kts 230°
2026-04-25 04:33 -7.09195 117.14165 32427 ft 503 kts 230°
2026-04-25 04:33 -7.11464 117.11464 32198 ft 504 kts 230°
2026-04-25 04:33 -7.13715 117.08784 32145 ft 504 kts 230°
2026-04-25 04:34 -7.18278 117.03349 32144 ft 505 kts 230°
2026-04-25 04:34 -7.22783 116.97983 32135 ft 505 kts 230°
2026-04-25 04:34 -7.25062 116.95269 31781 ft 503 kts 230°
2026-04-25 04:35 -7.27303 116.92599 30944 ft 504 kts 230°
2026-04-25 04:35 -7.29590 116.89870 29686 ft 507 kts 230°
2026-04-25 04:35 -7.31858 116.87166 28471 ft 506 kts 230°
2026-04-25 04:35 -7.34093 116.84501 27613 ft 498 kts 230°
2026-04-25 04:36 -7.36327 116.81836 27017 ft 488 kts 230°
2026-04-25 04:36 -7.38454 116.79300 26692 ft 472 kts 230°
2026-04-25 04:36 -7.40562 116.76784 26288 ft 459 kts 230°
2026-04-25 04:36 -7.42620 116.74328 25589 ft 455 kts 230°
2026-04-25 04:37 -7.44633 116.71924 24922 ft 451 kts 230°
2026-04-25 04:37 -7.46643 116.69523 24300 ft 445 kts 230°
2026-04-25 04:37 -7.48638 116.67143 23673 ft 440 kts 230°
2026-04-25 04:37 -7.50593 116.64810 23084 ft 434 kts 230°
2026-04-25 04:38 -7.52565 116.62475 22587 ft 435 kts 230°
2026-04-25 04:38 -7.54547 116.60198 22191 ft 434 kts 229°
2026-04-25 04:38 -7.56558 116.57920 22065 ft 433 kts 229°
2026-04-25 04:38 -7.58551 116.55672 21957 ft 433 kts 229°
2026-04-25 04:39 -7.60563 116.53403 21900 ft 432 kts 229°
2026-04-25 04:39 -7.62545 116.51165 21897 ft 432 kts 229°
2026-04-25 04:39 -7.64562 116.48882 21902 ft 432 kts 229°
2026-04-25 04:39 -7.66550 116.46630 21895 ft 432 kts 229°
2026-04-25 04:40 -7.68555 116.44357 21899 ft 432 kts 229°
2026-04-25 04:40 -7.70538 116.42107 21900 ft 432 kts 229°
2026-04-25 04:40 -7.72551 116.39823 21897 ft 432 kts 229°
2026-04-25 04:40 -7.74532 116.37573 21897 ft 432 kts 229°
2026-04-25 04:41 -7.76537 116.35295 21898 ft 432 kts 229°
2026-04-25 04:41 -7.78519 116.33044 21899 ft 432 kts 229°
2026-04-25 04:41 -7.80511 116.30759 21898 ft 432 kts 231°
2026-04-25 04:41 -7.82098 116.28167 21896 ft 432 kts 247°
2026-04-25 04:42 -7.82943 116.25295 21897 ft 433 kts 261°
2026-04-25 04:42 -7.83139 116.22288 21896 ft 433 kts 270°
2026-04-25 04:42 -7.83167 116.19236 21898 ft 433 kts 270°
2026-04-25 04:42 -7.83231 116.16187 21898 ft 432 kts 269°
2026-04-25 04:43 -7.83344 116.13172 21897 ft 433 kts 268°
2026-04-25 04:43 -7.83492 116.10156 21898 ft 433 kts 267°
2026-04-25 04:43 -7.83660 116.07099 21893 ft 433 kts 266°
2026-04-25 04:43 -7.83832 116.04100 21895 ft 433 kts 266°
2026-04-25 04:44 -7.84004 116.01044 21894 ft 433 kts 266°
2026-04-25 04:44 -7.84170 115.98026 21895 ft 432 kts 266°
2026-04-25 04:44 -7.84329 115.95026 21898 ft 432 kts 266°
2026-04-25 04:44 -7.84488 115.91969 21898 ft 433 kts 266°
2026-04-25 04:45 -7.84641 115.88960 21897 ft 432 kts 266°
2026-04-25 04:45 -7.84793 115.85919 21897 ft 432 kts 266°
2026-04-25 04:45 -7.84969 115.82904 21891 ft 432 kts 263°
2026-04-25 04:45 -7.85639 115.79973 21900 ft 432 kts 251°
2026-04-25 04:46 -7.86693 115.77107 21896 ft 432 kts 248°
2026-04-25 04:46 -7.87792 115.74311 21897 ft 432 kts 248°
2026-04-25 04:46 -7.88858 115.71497 21894 ft 432 kts 250°
2026-04-25 04:46 -7.89880 115.68630 21894 ft 432 kts 251°
2026-04-25 04:47 -7.90860 115.65759 21752 ft 431 kts 251°
2026-04-25 04:47 -7.91812 115.62915 21345 ft 430 kts 251°
2026-04-25 04:47 -7.92763 115.60051 20811 ft 427 kts 252°
2026-04-25 04:47 -7.93700 115.57235 20294 ft 422 kts 252°
2026-04-25 04:48 -7.94627 115.54455 19785 ft 417 kts 252°
2026-04-25 04:48 -7.95559 115.51666 19284 ft 415 kts 252°
2026-04-25 04:48 -7.96495 115.48935 18781 ft 413 kts 249°
2026-04-25 04:48 -7.97829 115.46404 18306 ft 411 kts 235°
2026-04-25 04:49 -7.99583 115.44115 17774 ft 407 kts 230°
2026-04-25 04:49 -8.01428 115.41947 17223 ft 404 kts 229°
2026-04-25 04:49 -8.03243 115.39838 16697 ft 400 kts 229°
2026-04-25 04:49 -8.05045 115.37688 16153 ft 397 kts 230°
2026-04-25 04:50 -8.06789 115.35543 15632 ft 395 kts 231°
2026-04-25 04:50 -8.08491 115.33400 15122 ft 392 kts 232°
2026-04-25 04:50 -8.10184 115.31236 14615 ft 389 kts 232°
2026-04-25 04:50 -8.11835 115.29108 14125 ft 387 kts 232°
2026-04-25 04:51 -8.13494 115.26966 13616 ft 384 kts 232°
2026-04-25 04:51 -8.15122 115.24862 13198 ft 379 kts 232°
2026-04-25 04:51 -8.16748 115.22762 13039 ft 381 kts 232°
2026-04-25 04:51 -8.18381 115.20655 12930 ft 382 kts 232°
2026-04-25 04:52 -8.19991 115.18584 12916 ft 361 kts 232°
2026-04-25 04:52 -8.21475 115.16680 12908 ft 337 kts 232°
2026-04-25 04:52 -8.22890 115.14862 12707 ft 319 kts 232°
2026-04-25 04:52 -8.24238 115.13126 12246 ft 314 kts 233°
2026-04-25 04:53 -8.25602 115.11372 12013 ft 318 kts 233°
2026-04-25 04:53 -8.26971 115.09613 11758 ft 316 kts 232°
2026-04-25 04:53 -8.28316 115.07887 11520 ft 314 kts 232°
2026-04-25 04:53 -8.29658 115.06167 11290 ft 313 kts 232°
2026-04-25 04:54 -8.31017 115.04429 11060 ft 313 kts 233°
2026-04-25 04:54 -8.32365 115.02702 10823 ft 313 kts 233°
2026-04-25 04:54 -8.33702 115.00988 10543 ft 311 kts 232°
2026-04-25 04:54 -8.35024 114.99281 10102 ft 306 kts 232°
2026-04-25 04:55 -8.36322 114.97608 9635 ft 302 kts 232°
2026-04-25 04:55 -8.37617 114.95946 9133 ft 296 kts 232°
2026-04-25 04:55 -8.38884 114.94324 8635 ft 288 kts 232°
2026-04-25 04:55 -8.40091 114.92780 8246 ft 275 kts 232°
2026-04-25 04:56 -8.41249 114.91296 8050 ft 261 kts 232°
2026-04-25 04:56 -8.42378 114.89854 7714 ft 265 kts 231°
2026-04-25 04:56 -8.43248 114.88987 7419 ft 261 kts 216°
2026-04-25 04:56 -8.44842 114.88190 6965 ft 255 kts 193°
2026-04-25 04:57 -8.46588 114.88070 6514 ft 249 kts 173°
2026-04-25 04:57 -8.48276 114.88371 6045 ft 244 kts 166°
2026-04-25 04:57 -8.49906 114.88747 5567 ft 241 kts 166°
2026-04-25 04:57 -8.51550 114.89077 5086 ft 240 kts 168°
2026-04-25 04:58 -8.53194 114.89328 4596 ft 234 kts 172°
2026-04-25 04:58 -8.54787 114.89501 4117 ft 229 kts 174°
2026-04-25 04:58 -8.56365 114.89628 3643 ft 225 kts 175°
2026-04-25 04:58 -8.57887 114.89733 3295 ft 217 kts 176°
2026-04-25 04:59 -8.59352 114.89830 3069 ft 205 kts 176°
2026-04-25 04:59 -8.60729 114.89922 3009 ft 189 kts 175°
2026-04-25 04:59 -8.62060 114.90015 3007 ft 194 kts 175°
2026-04-25 04:59 -8.63409 114.90114 3008 ft 193 kts 175°
2026-04-25 05:00 -8.64735 114.90216 3008 ft 193 kts 175°
2026-04-25 05:00 -8.66086 114.90323 3006 ft 194 kts 175°
2026-04-25 05:00 -8.67411 114.90428 3002 ft 192 kts 174°
2026-04-25 05:00 -8.68725 114.90533 3003 ft 181 kts 174°
2026-04-25 05:01 -8.69919 114.90627 3012 ft 168 kts 174°
2026-04-25 05:01 -8.71116 114.90719 2998 ft 171 kts 174°
2026-04-25 05:01 -8.72296 114.90814 3006 ft 173 kts 174°
2026-04-25 05:01 -8.73497 114.90912 3001 ft 172 kts 174°
2026-04-25 05:02 -8.74648 114.91076 2985 ft 170 kts 160°
2026-04-25 05:02 -8.75577 114.91790 3000 ft 167 kts 123°
2026-04-25 05:02 -8.75881 114.92876 3014 ft 166 kts 91°
2026-04-25 05:02 -8.75802 114.94040 3001 ft 164 kts 82°
2026-04-25 05:03 -8.75650 114.95183 3001 ft 165 kts 82°
2026-04-25 05:03 -8.75531 114.96326 3000 ft 164 kts 85°
2026-04-25 05:03 -8.75465 114.97483 2961 ft 165 kts 88°
2026-04-25 05:03 -8.75440 114.98629 2761 ft 161 kts 90°
2026-04-25 05:04 -8.75440 114.99773 2747 ft 163 kts 91°
2026-04-25 05:04 -8.75423 115.00895 2729 ft 151 kts 89°
2026-04-25 05:04 -8.75390 115.01898 2738 ft 143 kts 89°
2026-04-25 05:04 -8.75363 115.02946 2715 ft 150 kts 88°
2026-04-25 05:05 -8.75335 115.03968 2476 ft 144 kts 87°
2026-04-25 05:05 -8.75297 115.05014 2143 ft 147 kts 87°
2026-04-25 05:05 -8.75254 115.06016 1813 ft 142 kts 87°
2026-04-25 05:05 -8.75207 115.07027 1477 ft 143 kts 88°
2026-04-25 05:06 -8.75162 115.08019 1282 ft 145 kts 89°
2026-04-25 05:06 -8.75124 115.09015 1070 ft 141 kts 89°
2026-04-25 05:06 -8.75090 115.10020 1000 ft 142 kts 89°
2026-04-25 05:06 -8.75052 115.11011 1002 ft 146 kts 89°
2026-04-25 05:07 -8.75010 115.12052 1002 ft 146 kts 89°
2026-04-25 05:07 -8.74964 115.13094 795 ft 148 kts 89°
2026-04-25 05:07 -8.74938 115.14140 430 ft 149 kts 91°
2026-04-25 05:07 -8.74920 115.15174 140 ft 143 kts 89°
2026-04-25 05:08 -8.74865 115.16120 27 ft 113 kts 86°
2026-04-25 05:08 -8.74842 115.16602 26 ft 27 kts 88°
2026-04-25 05:08 -8.74840 115.16686 29 ft 20 kts 85°
2026-04-25 05:08 -8.74733 115.16805 31 ft 13 kts 40°
2026-04-25 05:09 -8.74728 115.16809 31 ft 0 kts 40°
2026-04-25 05:09 -8.74719 115.16816 28 ft 9 kts 40°
2026-04-25 05:09 -8.74665 115.16857 30 ft 7 kts 22°
2026-04-25 05:10 -8.74611 115.16867 30 ft 9 kts 360°
2026-04-25 05:10 -8.74542 115.16864 30 ft 11 kts 357°
2026-04-25 05:10 -8.74530 115.16864 26 ft 0 kts 357°